FENGYUN 1C DEB, 30945

Orbit data source: Space-Track

FENGYUN 1C DEB, 30945 is space debris in SSO originally from a launch on Mon, 10 May 1999 UTC launched from the Taiyaun Space Center, China (TSC). Fengyun 1C debris stems from the Chinese weather satellite Fengyun-1C, which was intentionally destroyed by a Chinese anti-satellite missile in 2007. This event dramatically increased the amount of space debris, with thousands of trackable fragments posing hazards to satellites and human spaceflight. The Fengyun 1C debris cloud has become a focal point in discussions about space sustainability and the need for international regulations to prevent the creation of new debris.

Loading next visibility...
Identifier
30945, 1999-025BAK
Orbit
SSO
Country
Flag of CNCN / PRC
Related business
Manufacturer
Unknown
Mission
Spacecraft
Bus & Motor
Unknown
Mass
Unknown
Launch date (UTC)
1999-05-10 (27 years ago)
Launch vehicle
Unknown
Launch site
Taiyaun Space Center, China (TSC)
Object type
Payload
Rocket body
Debris
Shape & HBR
Unknown shape, 0.1 m
Radar Cross Section
Small (<0.1 m²)

Expand to show TLE details & history
Last TLE update: 2 days ago

TLE from 2 days ago
0 FENGYUN 1C DEB
1 30945U 99025BAK 26255.06839056  .00001957  00000-0  75010-3 0  9991
2 30945  99.3797 290.3125 0028356 334.2117  81.1611 14.31633723  3233
Epoch: 2026-09-12T01:38Z
TLE epoch observation values (Epoch: 2026-09-12T01:38:28.944Z)
Latitude
54.68852°
Longitude
-98.80331°
Altitude
792.193 km
Speed
7.464 km/s
True Right ascension
18h 27m 35s
True Declination
54° 31' 37"
Sunlit
Object was in daylight at epoch
Visualization orbit readout
Latitude
Unknown
Longitude
Unknown
Altitude
Unknown
Speed
Unknown
Apparent Right ascension
Unknown
Apparent Declination
Unknown
Sunlit
N/A
Visualization observer readout
Local Sidereal Time
02:22:59
Azimuth
Unknown
Elevation
Unknown
Doppler factor
Unknown
Orbital elements
Apogee altitude
803.759 km
Perigee altitude
763.144 km
Semi-major axis
7,161.589 km
Eccentricity
0.00284
Inclination
99.3797°
RAAN
290.3125°
Arg. of periapsis
334.2117°
True anomaly
81.48235°
Mean anomaly
81.1611°
Eccentric anomaly
81.32171°
Mean motion
3.5812 °/min
Orbital period
100.52 mins
BSTAR
0.0007501
Loading maneuver chart data...
Computing Atmospheric mass density...

Documentation

Showing up to 5 results
|